Location: Unspecified
(0.0000°N, 0.0000°E)
Time: 17:54:45
(UTC+00:00)

Vanguard 1 - Pass Details

Date: 14 December 2025
Orbit: 651 x 3820 km, 34.2° (Epoch: 14 January)

Event Time Altitude Azimuth Distance (km) Brightness Sun altitude
Rises 22:04:55 0° 251° (WSW) 7,959 15.2 -54.6°
Reaches altitude 10° 22:14:17 10° 234° (SW) 6,803 14.7 -56.2°
Maximum altitude 22:26:35 17° 199° (SSW) 5,614 14.1 -58.3°
Drops below altitude 10° 22:36:35 10° 163° (SSE) 5,408 14.0 -59.9°
Sets 22:42:33 0° 143° (SE) 5,801 14.1 -60.8°
